Location: Bli��� Lhota
(48.7570°N, 14.0120°E)
Time: 08:15:25
(UTC+00:00)

NOSS 2-2 (D) - Pass Details

Date: 18 September 2020
Orbit: 469 x 1739 km, 63.3° (Epoch: 23 October)

Event Time Altitude Azimuth Distance (km) Brightness Sun altitude
Rises 19:21:19 0° 235° (SW) 2,501 7.0 -21.5°
Reaches altitude 10° 19:23:22 10° 242° (WSW) 1,640 6.1 -21.8°
Maximum altitude 19:26:49 49° 318° (NW) 664 4.0 -22.3°
Drops below altitude 10° 19:30:48 10° 35° (NE) 1,901 6.0 -22.9°
Enters shadow 19:32:21 - 39° (NE) 2,542 6.6 -23.1°
